sat.trackr.live / text

‹ back to catalog

STARLINK-32548

NORAD 62120 · 2024-222G

PAYLOAD ACTIVE UNKNOWN

§ Identity

Operator
Country
US
Launch date
2024-11-27
Launch site
AFETR
Launch vehicle
Mass (kg)
RCS (m²)

Purposes: comms

External: N2YO · Heavens-Above · Gunter

§ Orbital elements

Epoch: 2026-05-25T04:18:22.148928Z

Period
94.27 min
Inclination
43.0028°
Eccentricity
0.0001575
Mean motion
15.27597911 rev/d
Perigee alt
481.9 km
Apogee alt
484.1 km
Semi-major
6,861.1 km
B*
8.4090e-4
RAAN
64.5062°
Arg perigee
276.4512°
Mean anomaly
83.6160°
Rev number
8,445

§ Raw data

STARLINK-325481 62120U 24222G   26145.17942302  .00022962  00000+0  84090-3 0  99932 62120  43.0028  64.5062 0001575 276.4512  83.6160 15.27597911 84450

JSON: /api/v1/satellites/62120 · /tle

For live sub-satellite position, see the globe view (requires WebGL).

§ Visibility from observer

Set your observer location to see the next 7 days of passes ≥ 10°. The values pass through the URL so the page stays shareable.

No JS? Fill the form by hand. The geolocation button needs JavaScript.